Location: Home
(42.5358°N, 72.7383°W)
Time: 00:18:16
(UTC-04:00)

DELTA 1 DEB - Pass Details

Date: 28 June 2022
Orbit: 600 x 774 km, 98.5° (Epoch: 16 August)

Event Time Altitude Azimuth Distance (km) Brightness Sun altitude
Exits shadow 00:15:52 11° 246° (WSW) 2,246 ? -23.6°
Maximum altitude 00:17:51 13° 270° (W) 2,089 ? -23.7°
Drops below altitude 10° 00:20:14 10° 298° (WNW) 2,301 ? -23.7°
Sets 00:23:51 0° 326° (NW) 3,207 ? -23.8°
